Regional Weather Roundup
Issued by NWS

Home | Current Version | Previous Version | Text Only | Print | Product List | Glossary On
Versions: 1 2 3 4 5 6 7 8 9 10 11 12 13 14 15 16 17 18 19 20 21 22 23 24 25 26 27 28 29 30 31 32 33 34 35 36 37 38 39 40 41 42 43 44 45 46 47 48 49 50
166
ASUS44 KMEG 180410
RWRTN
TENNESSEE HOURLY STATE WEATHER ROUNDUP
NATIONAL WEATHER SERVICE MEMPHIS TN
1000 PM CST SUN NOV 17 2019

TNZ002-004-019-021-049-052-054-088>092-180500-
WEST TENNESSEE

CITY           SKY/WX    TMP DP  RH WIND       PRES   REMARKS
MEMPHIS INTL   FAIR      44  36  73 S3        29.95F
NWS MEMPHIS      N/A     37 N/A N/A MISG        N/A
JACKSON        MOCLDY    41  35  79 CALM      29.94S
DYERSBURG      CLOUDY    44  38  79 W5        29.94F
SOMERVILLE     MOCLDY    39  34  81 CALM      29.93S
UNION CITY     CLOUDY    43  37  81 CALM      29.91S HAZE
BOLIVAR        CLEAR     37  36  93 CALM      29.93S
PARIS          CLOUDY    43  36  75 CALM      29.91S
LEXINGTON      CLOUDY    43  36  75 CALM      29.91S
SELMER         PTCLDY    39  36  87 CALM      29.92R
SAVANNAH       PTCLDY    37  36  93 CALM      29.91F
$$

TNZ008-025-027-028-033-062-065-066-180500-
NORTH MIDDLE TENNESSEE

CITY           SKY/WX    TMP DP  RH WIND       PRES   REMARKS
NASHVILLE      FAIR      40  33  76 S3        29.90F
DICKSON        CLOUDY    41  32  70 CALM      29.88F
PORTLAND       CLEAR     36  34  93 CALM      29.88F
CLARKSVILLE    CLOUDY    39  35  86 W5        29.91R
LEBANON        PTCLDY    37  34  87 CALM      29.89F
SMYRNA         FAIR      36  35  96 CALM      29.91F
MURFREESBORO   CLEAR     39  36  87 CALM      29.88F
COOKEVILLE     PTCLDY    37  34  87 E3        29.88F
LIVINGSTON     CLEAR     43  30  61 SW5       29.87F
GALLATIN       CLEAR     37  32  81 CALM      29.92F
CROSSVILLE     FAIR      40  32  73 CALM      29.89S
ROCKWOOD       CLEAR     45  32  61 CALM      29.87F
$$

TNZ061-075-076-078-094-096-097-180500-
SOUTH MIDDLE TENNESSEE

CITY           SKY/WX    TMP DP  RH WIND       PRES   REMARKS
LAWRENCEBURG   CLEAR     37  32  81 CALM      29.90S
LEWISBURG      CLEAR     32  30  93 CALM      29.90S
FAYETTEVILLE   CLEAR     41  34  75 CALM      29.89S
TULLAHOMA      CLEAR     37  32  81 CALM      29.89S
WINCHESTER     PTCLDY    41  36  81 CALM      29.89F
MCMINNVILLE    PTCLDY    39  34  81 CALM      29.89F
COLUMBIA       CLEAR     36  36 100 SW3       29.90R
SHELBYVILLE    CLEAR     37  34  87 CALM      29.89F
$$

TNZ017-018-042-046-047-180500-
NORTHEAST TENNESSEE

CITY           SKY/WX    TMP DP  RH WIND       PRES   REMARKS
TRI CITIES     CLOUDY    42  35  76 NE3       29.89F
ELIZABETHTON   FAIR      43  37  81 CALM      29.88F
GREENEVILLE    PTCLDY    46  37  71 CALM      29.87F
$$

TNZ012-013-036-069-073-074-180500-
CENTRAL EAST TENNESSEE

CITY           SKY/WX    TMP DP  RH WIND       PRES   REMARKS
KNOXVILLE      CLOUDY    47  39  74 NE3       29.86F
OAK RIDGE      FAIR      44  37  76 CALM      29.88F
DOWNTOWN KNOXV PTCLDY    45  45 100 CALM      29.87F
GATLINBURG     MOCLDY    45  41  87 CALM      29.87F
MORRISTOWN     MOCLDY    46  39  76 CALM      29.86F
JACKSBORO      CLEAR     39  37  93 CALM      29.91R
$$

TNZ083-085-099-180500-
SOUTHEAST TENNESSEE

CITY           SKY/WX    TMP DP  RH WIND       PRES   REMARKS
CHATTANOOGA    MOCLDY    45  41  86 CALM      29.89R
DAYTON         CLEAR     41  39  93 CALM      29.88R
$$

SKY/WX REPORTED AS FAIR MEANS FEW OR NO CLOUDS BELOW
12 THOUSAND FEET.





USA.gov is the U.S. government's official web portal to all federal, state and local government web resources and services.